Weather History for Americus, GA

Change the Weather History Date:

Sunday, January 19, 2014

  Actual Average (KABY) Record (KABY)
Temperature  
Mean Temperature 47 °F 49 °F  
Max Temperature 59 °F 61 °F 79 °F (2001)
Min Temperature 35 °F 38 °F 9 °F (1977)
Degree Days  
Heating Degree Days 18 16  
Month to date heating degree days 304  
Since 1 July heating degree days 1017  
Cooling Degree Days 0 0  
Month to date cooling degree days 0  
Year to date cooling degree days 0  
Moisture  
Dew Point 31 °F    
Average Humidity 61    
Maximum Humidity 87    
Minimum Humidity 31    
Precipitation  
Precipitation 0.00 in 0.16 in 1.10 in (2008)
Month to date precipitation 2.55  
Year to date precipitation 2.55  
Sea Level Pressure  
Sea Level Pressure 30.10 in    
Wind  
Wind Speed 7 mph (West)    
Max Wind Speed 17 mph    
Max Gust Speed 24 mph    
Visibility 10 miles    
Events      
T = Trace of Precipitation, MM = Missing Value Source: NWS Daily Summary

Daily Weather History Graph

Daily Weather History Graph

Search for Another Location

Airport:

Trip Planner

Search our weather history database for the weather conditions in past years. The results will help you decide how hot, cold, wet, or windy it might be!

Date:

Astronomy

Jan. 19, 2014 Rise Set
Actual Time 7:36 AM EST 5:58 PM EST
Civil Twilight 7:10 AM EST 6:24 PM EST
Nautical Twilight 6:40 AM EST 6:54 PM EST
Astronomical Twilight 6:11 AM EST 7:24 PM EST
Moon 9:20 PM EST (1/19) 9:20 AM EST (1/19)
Length of Visible Light 11h 14m
Length of Day
10h 21m
Waning Gibbous, 89% of the Moon is Illuminated
Jan 19
Waning Gibbous
Jan 24
Last Quarter
Jan 30
New
Feb 6
First Quarter
Feb 14
Full

Hourly Weather History & Observations

Time (EST) Temp. Windchill Dew Point Humidity Pressure Visibility Wind Dir Wind Speed Gust Speed Precip Events Conditions
12:15 AM 37.4 °F 31.4 °F 23.0 °F 56% 30.09 in 10.0 mi SW 8.1 mph - N/A   Clear
12:35 AM 37.4 °F 32.8 °F 23.0 °F 56% 30.08 in 10.0 mi SW 5.8 mph - N/A   Clear
12:55 AM 37.4 °F 32.1 °F 24.8 °F 60% 30.08 in 10.0 mi SW 6.9 mph - N/A   Clear
1:15 AM 37.4 °F 32.8 °F 26.6 °F 65% 30.08 in 10.0 mi SW 5.8 mph - N/A   Clear
1:35 AM 37.4 °F 33.8 °F 26.6 °F 65% 30.08 in 10.0 mi SW 4.6 mph - N/A   Scattered Clouds
1:55 AM 37.4 °F 33.8 °F 26.6 °F 65% 30.09 in 10.0 mi WSW 4.6 mph - N/A   Overcast
2:15 AM 37.4 °F 32.8 °F 28.4 °F 70% 30.10 in 10.0 mi West 5.8 mph - N/A   Overcast
2:35 AM 37.4 °F 34.9 °F 28.4 °F 70% 30.09 in 10.0 mi SW 3.5 mph - N/A   Overcast
2:55 AM 35.6 °F 32.8 °F 28.4 °F 75% 30.09 in 10.0 mi WSW 3.5 mph - N/A   Overcast
3:15 AM 35.6 °F 30.7 °F 28.4 °F 75% 30.09 in 10.0 mi SSW 5.8 mph - N/A   Overcast
3:35 AM 37.4 °F 33.8 °F 28.4 °F 70% 30.08 in 10.0 mi SW 4.6 mph - N/A   Overcast
3:55 AM 35.6 °F 29.9 °F 28.4 °F 75% 30.08 in 10.0 mi SW 6.9 mph - N/A   Overcast
4:15 AM 37.4 °F 32.1 °F 30.2 °F 75% 30.08 in 10.0 mi SSW 6.9 mph - N/A   Overcast
4:35 AM 37.4 °F 32.8 °F 30.2 °F 75% 30.07 in 10.0 mi SW 5.8 mph - N/A   Scattered Clouds
4:55 AM 37.4 °F 32.8 °F 30.2 °F 75% 30.07 in 10.0 mi SW 5.8 mph - N/A   Clear
5:15 AM 37.4 °F 33.8 °F 32.0 °F 81% 30.06 in 10.0 mi SW 4.6 mph - N/A   Mostly Cloudy
5:35 AM 37.4 °F 34.9 °F 32.0 °F 81% 30.06 in 10.0 mi WSW 3.5 mph - N/A   Scattered Clouds
5:55 AM 37.4 °F 33.8 °F 32.0 °F 81% 30.07 in 10.0 mi WSW 4.6 mph - N/A   Mostly Cloudy
6:15 AM 39.2 °F 35.9 °F 32.0 °F 75% 30.07 in 10.0 mi SW 4.6 mph - N/A   Overcast
6:35 AM 39.2 °F 35.0 °F 32.0 °F 75% 30.07 in 10.0 mi SW 5.8 mph - N/A   Overcast
6:55 AM 39.2 °F 35.0 °F 32.0 °F 75% 30.08 in 10.0 mi SW 5.8 mph - N/A   Mostly Cloudy
7:15 AM 39.2 °F 35.0 °F 32.0 °F 75% 30.08 in 10.0 mi SW 5.8 mph - N/A   Scattered Clouds
7:35 AM 39.2 °F 35.0 °F 33.8 °F 81% 30.07 in 10.0 mi SW 5.8 mph - N/A   Scattered Clouds
7:55 AM 39.2 °F 37.0 °F 33.8 °F 81% 30.08 in 10.0 mi SW 3.5 mph - N/A   Scattered Clouds
8:15 AM 39.2 °F 35.0 °F 33.8 °F 81% 30.09 in 10.0 mi SW 5.8 mph - N/A   Clear
8:35 AM 41.0 °F 38.0 °F 35.6 °F 81% 30.10 in 10.0 mi WSW 4.6 mph - N/A   Clear
8:55 AM 42.8 °F 39.3 °F 37.4 °F 81% 30.10 in 10.0 mi WSW 5.8 mph - N/A   Clear
9:15 AM 44.6 °F 39.7 °F 37.4 °F 76% 30.11 in 10.0 mi WSW 9.2 mph - N/A   Clear
9:35 AM 46.4 °F 42.4 °F 37.4 °F 71% 30.12 in 10.0 mi West 8.1 mph 16.1 mph N/A   Clear
9:55 AM 48.2 °F - 39.2 °F 71% 30.13 in 10.0 mi West 9.2 mph - N/A   Clear
10:15 AM 50.0 °F - 37.4 °F 62% 30.12 in 10.0 mi WNW 8.1 mph 17.3 mph N/A   Clear
10:35 AM 51.8 °F - 35.6 °F 54% 30.13 in 10.0 mi West 12.7 mph 19.6 mph N/A   Clear
10:55 AM 51.8 °F - 35.6 °F 54% 30.13 in 10.0 mi NW 10.4 mph 17.3 mph N/A   Clear
11:15 AM 51.8 °F - 33.8 °F 50% 30.13 in 10.0 mi WNW 12.7 mph 19.6 mph N/A   Clear
11:35 AM 53.6 °F - 32.0 °F 44% 30.13 in 10.0 mi NW 10.4 mph - N/A   Clear
11:55 AM 53.6 °F - 32.0 °F 44% 30.13 in 10.0 mi WNW 13.8 mph 18.4 mph N/A   Clear
12:15 PM 53.6 °F - 32.0 °F 44% 30.12 in 10.0 mi WNW 9.2 mph 16.1 mph N/A   Clear
12:35 PM 55.4 °F - 32.0 °F 41% 30.11 in 10.0 mi WNW 15.0 mph - N/A   Clear
12:55 PM 55.4 °F - 28.4 °F 36% 30.10 in 10.0 mi WNW 17.3 mph 24.2 mph N/A   Clear
1:15 PM 55.4 °F - 28.4 °F 36% 30.09 in 10.0 mi West 10.4 mph - N/A   Clear
1:35 PM 57.2 °F - 30.2 °F 36% 30.08 in 10.0 mi WNW 11.5 mph 21.9 mph N/A   Clear
1:55 PM 57.2 °F - 28.4 °F 33% 30.09 in 10.0 mi WNW 15.0 mph 20.7 mph N/A   Clear
2:15 PM 57.2 °F - 28.4 °F 33% 30.09 in 10.0 mi WNW 12.7 mph 18.4 mph N/A   Clear
2:35 PM 57.2 °F - 30.2 °F 36% 30.09 in 10.0 mi WNW 10.4 mph - N/A   Clear
2:55 PM 57.2 °F - 30.2 °F 36% 30.09 in 10.0 mi West 9.2 mph - N/A   Clear
3:15 PM 59.0 °F - 28.4 °F 31% 30.09 in 10.0 mi WNW 10.4 mph 17.3 mph N/A   Clear
3:35 PM 59.0 °F - 28.4 °F 31% 30.09 in 10.0 mi West 13.8 mph 17.3 mph N/A   Clear
3:55 PM 57.2 °F - 28.4 °F 33% 30.09 in 10.0 mi WNW 11.5 mph - N/A   Clear
4:15 PM 57.2 °F - 30.2 °F 36% 30.10 in 10.0 mi WNW 11.5 mph - N/A   Clear
4:35 PM 57.2 °F - 28.4 °F 33% 30.10 in 10.0 mi West 8.1 mph - N/A   Clear
4:55 PM 57.2 °F - 28.4 °F 33% 30.10 in 10.0 mi WNW 9.2 mph - N/A   Clear
5:15 PM 55.4 °F - 28.4 °F 36% 30.10 in 10.0 mi WNW 10.4 mph - N/A   Clear
5:35 PM 55.4 °F - 28.4 °F 36% 30.10 in 10.0 mi West 9.2 mph - N/A   Clear
5:55 PM 53.6 °F - 28.4 °F 38% 30.10 in 10.0 mi WNW 4.6 mph - N/A   Clear
6:15 PM 51.8 °F - 30.2 °F 44% 30.10 in 10.0 mi WNW 3.5 mph - N/A   Clear
6:35 PM 46.4 °F - 32.0 °F 57% 30.10 in 10.0 mi Calm Calm - N/A   Clear
6:55 PM 46.4 °F 44.3 °F 30.2 °F 53% 30.10 in 10.0 mi West 4.6 mph - N/A   Clear
7:15 PM 44.6 °F - 32.0 °F 61% 30.12 in 10.0 mi Calm Calm - N/A   Clear
7:55 PM 46.4 °F 45.2 °F 30.2 °F 53% 30.12 in 10.0 mi WNW 3.5 mph - N/A   Clear
8:15 PM 41.0 °F - 32.0 °F 70% 30.12 in 10.0 mi Calm Calm - N/A   Clear
8:35 PM 41.0 °F - 32.0 °F 70% 30.12 in 10.0 mi Calm Calm - N/A   Clear
8:55 PM 39.2 °F - 32.0 °F 75% 30.13 in 10.0 mi Calm Calm - N/A   Clear
9:15 PM 41.0 °F - 32.0 °F 70% 30.12 in 10.0 mi Calm Calm - N/A   Clear
9:35 PM 37.4 °F - 32.0 °F 81% 30.12 in 10.0 mi Calm Calm - N/A   Clear
9:55 PM 39.2 °F 35.9 °F 32.0 °F 75% 30.13 in 10.0 mi West 4.6 mph - N/A   Clear
10:15 PM 37.4 °F - 32.0 °F 81% 30.13 in 10.0 mi Calm Calm - N/A   Clear
10:35 PM 35.6 °F - 32.0 °F 87% 30.13 in 10.0 mi Calm Calm - N/A   Clear
10:55 PM 35.6 °F - 32.0 °F 87% 30.13 in 10.0 mi Calm Calm - N/A   Clear
11:15 PM 35.6 °F - 32.0 °F 87% 30.13 in 10.0 mi Calm Calm - N/A   Clear
11:35 PM 37.4 °F - 32.0 °F 81% 30.13 in 10.0 mi Calm Calm - N/A   Clear
11:55 PM 35.6 °F - 30.2 °F 81% 30.12 in 10.0 mi Calm Calm - N/A   Clear